Regional Weather Roundup
Issued by NWS

Home | Current Version | Previous Version | Graphics & Text | Print | Product List | Glossary Off
Versions: 1 2 3 4 5 6 7 8 9 10 11 12 13 14 15 16 17 18 19 20 21 22 23 24 25 26 27 28 29 30 31 32 33 34 35 36 37 38 39 40 41 42 43 44 45 46 47 48 49 50

000
ASUS43 KMKX 202321
RWRWI

WISCONSIN REGIONAL WEATHER ROUNDUP
NATIONAL WEATHER SERVICE MILWAUKEE/SULLIVAN WI
600 PM CDT SUN APR 20 2014

NOTE: "FAIR" INDICATES FEW OR NO CLOUDS BELOW 12,000 FEET WITH NO
SIGNIFICANT WEATHER AND/OR OBSTRUCTIONS TO VISIBILITY.

WIZ001-002-006>008-014>016-023>028-210000-
NORTHWEST WISCONSIN

CITY           SKY/WX    TMP DP  RH WIND       PRES   REMARKS
SUPERIOR ARPT  SUNNY     62  38  42 NE3       29.98F
ASHLAND        SUNNY     53  39  59 N6        30.02R
HAYWARD        SUNNY     70  27  20 VRB5      29.98S
SIREN          SUNNY     70  29  21 NW7       29.98S
RICE LAKE      SUNNY     72  46  39 SE8       29.98S
LADYSMITH      SUNNY     69  50  52 S12       30.00S
EAU CLAIRE     PTSUNNY   65  54  67 S13       29.98S
MENOMONIE      PTCLDY    69  50  51 SE6       29.98S
NEW RICHMOND   SUNNY     71  40  32 S7        29.97S
OSCEOLA        SUNNY     73  40  29 NW6       29.98S
$$

WIZ003>005-009-010-017-018-210000-
NORTH CENTRAL WISCONSIN

CITY           SKY/WX    TMP DP  RH WIND       PRES   REMARKS
WOODRUFF       SUNNY     66  43  44 S8        29.99S
RHINELANDER    CLOUDY    60  49  66 S8        30.01S
EAGLE RIVER    SUNNY     65  41  40 SW8       29.99S
LAND O LAKES   SUNNY     67  38  34 W5        29.99S
PHILLIPS       SUNNY     68  48  50 S9        29.97F
TOMAHAWK       CLOUDY    59  49  70 CALM      30.02R
MEDFORD        CLOUDY    56  52  88 S5        30.02F
MERRILL        CLOUDY    57  51  82 CALM      30.02F
$$

WIZ029-030-035-036-043>047-210000-
CENTRAL WISCONSIN

CITY           SKY/WX    TMP DP  RH WIND       PRES   REMARKS
WAUSAU         CLOUDY    58  52  80 S3        30.01F
MOSINEE        NOT AVBL
MARSHFIELD     CLOUDY    60  54  80 SW5       30.02S
STEVENS POINT  PTSUNNY   59  53  80 S5        30.03F
WAUPACA        PTSUNNY   61  54  77 S5        30.03F
WAUTOMA        CLOUDY    60  56  87 CALM      30.03F
WISC RAPIDS    CLOUDY    59  52  77 SW3       30.04F
CAMP DOUGLAS   PTSUNNY   60  59  99 CALM      30.01F
$$

WIZ011>013-019>022-031-037>040-048>050-210000-
NORTHEAST WISCONSIN

CITY           SKY/WX    TMP DP  RH WIND       PRES   REMARKS
ANTIGO         CLOUDY    55  50  83 S7        30.04S
STURGEON BAY   CLOUDY    46  39  76 S7        30.06S
GREEN BAY      CLOUDY    57  51  80 S7        30.05S
MANITOWOC      LGT RAIN  49  38  65 S5        30.07F
APPLETON       PTSUNNY   57  54  88 S6        30.05F
CLINTONVILLE   CLOUDY    59  52  77 CALM      30.04F
OSHKOSH        CLOUDY    58  54  86 SE3       30.04F FOG
$$

WIZ032>034-041-042-053>061-210000-
SOUTHWEST WISCONSIN

CITY           SKY/WX    TMP DP  RH WIND       PRES   REMARKS
LA CROSSE      CLOUDY    61  54  77 CALM      30.00F
SPARTA         CLOUDY    60  54  78 CALM      30.02F
VIROQUA        CLOUDY    61  58  90 E3        30.01F
BOSCOBEL       LGT RAIN  61  57  87 CALM      29.99F FOG
PRAIRIE DU CHI LGT RAIN  61  56  85 W6        29.97F
PLATTEVILLE    FAIR      74  47  38 NE6       30.02F
$$

WIZ056-057-062-063-064-067-068-210000-
SOUTH CENTRAL WISCONSIN

CITY           SKY/WX    TMP DP  RH WIND       PRES   REMARKS
BARABOO/DELLS  CLOUDY    60  55  85 CALM      30.00F
LONE ROCK      CLOUDY    64  57  78 E5        30.00F
WATERTOWN      LGT RAIN  70  47  44 CALM      30.02F
MADISON        CLOUDY    68  50  52 CALM      30.02F
MIDDLETON      FAIR      69  48  47 SE5       30.02S
MONROE         PTSUNNY   76  44  31 SW9       30.02S
JANESVILLE     SUNNY     81  37  21 SW12      30.02F
$$

WIZ051-052-058>065-066-070>072-210000-
SOUTHEAST WISCONSIN

CITY           SKY/WX    TMP DP  RH WIND       PRES   REMARKS
MILWAUKEE      PTSUNNY   70  40  33 S10       30.06S
WAUKESHA       MOSUNNY   73  41  31 SW9       30.04F
MILWAUKEE/TIMM MOSUNNY   75  37  25 SW8       30.04F
RACINE         PTSUNNY   62  37  39 S12       30.08F
BURLINGTON     PTSUNNY   75  41  29 SW13      30.04F
KENOSHA        MOSUNNY   69  40  34 SE13      30.06F
FOND DU LAC    CLOUDY    60  51  72 CALM      30.04F
SHEBOYGAN      CLOUDY    56  39  53 CALM      30.06F
WEST BEND      CLOUDY    64  41  42 E5        30.04F
JUNEAU         CLOUDY    65  50  57 N3        30.04F
$$

LSZ147-162-210000-
LAKE SUPERIOR

STATION/POSITION TIME  TEMP    WIND        PRES    WAVE
                       AIR SEA DIR/SP/G            HT/PER
                 (UTC) (F)     (DEG/KT/KT) (MB)    (FT/S)
DEVILS ISLAND    2300   52      40/  3/  5 1016.4F
PORT WING        2300           40/  2/  4 1015.9S
SAXON HARBOR     2200             CALM     1016.3F
$$

LMZ867-665-643>646-210000-
LAKE MICHIGAN

STATION/POSITION TIME  TEMP    WIND        PRES    WAVE
                       AIR SEA DIR/SP/G            HT/PER
                 (UTC) (F)     (DEG/KT/KT) (MB)    (FT/S)
NORTHPORT PIER   2200   41     150/  4/  7 1017.9F
SISTER BAY       2209   47     160/  8/ 10   N/A
KEWAUNEE LAKESHO 2300   39     170/  7/  8 1018.8F
SHEBOYGAN LAKESH 2300   46     160/  5/  5 1018.4F
PORT WASHINGTON  2200   50     110/  3/  5 1019.0
MILWAUKEE LAKESH 2300   50     140/ 13/ 14   N/A
KENOSHA   LAKESH 2300   53     180/ 14/ 16   N/A
$$

TC  - TEMPERATURE IN CELSIUS
VSB - VISIBILITY IN STATUTE MILES
WCI - WIND CHILL INDEX
HX  - HEAT INDEX




USA.gov is the U.S. government's official web portal to all federal, state and local government web resources and services.